Regional Weather Roundup
Issued by NWS Midland/Odessa, TX

Current Version | Previous Version | Text Only | Print | Product List | Glossary On
Versions: 1 2 3 4 5 6 7 8 9 10 11 12 13 14 15 16 17 18 19 20 21 22 23 24 25 26 27 28 29 30 31 32 33 34 35 36 37 38 39 40 41 42 43 44 45 46 47 48 49 50
000
ASUS44 KMAF 050701
RWRMAF
MIDLAND AREA WEATHER ROUNDUP
NATIONAL WEATHER SERVICE MIDLAND TX
200 AM CDT SUN JUL 05 2015

...IN SOUTHWEST TEXAS AND SOUTHEAST NEW MEXICO...

CITY           SKY/WX    TMP DP  RH WIND       PRES   REMARKS
ALPINE         FAIR      71  62  72 S6        30.15F
ANDREWS        FAIR      73  62  68 S7        30.03F
ARTESIA        FAIR      73  59  60 SE7       30.03S
BIG SPRING     FAIR      79  64  60 S10       30.04S
CARLSBAD       FAIR      75  61  61 S6        30.00S
DRYDEN           N/A     79  68  69 SE6       29.97S
FORT STOCKTON  FAIR      76  65  68 SE12      30.01S
GUAD PASS      MOCLDY    69  60  73 NE14      30.17R
HOBBS          FAIR      72  61  68 S7        30.05F
MARFA          FAIR     N/A N/A N/A CALM      30.15S
MIDLAND AIRPK  FAIR      78  64  62 S12       30.03S
MIDLAND INTL   FAIR      76  65  68 S8        30.02F
ODESSA         FAIR      77  63  61 S10       30.03F
PECOS          FAIR      78  63  58 E9        29.98S
PRESIDIO       FAIR      82  63  53 MISG      29.98S
SEMINOLE       FAIR      71  60  67 S6        30.04F
SNYDER         FAIR      74  64  70 S8        30.02S
WINK           FAIR      77  62  59 SE12      29.99F
$$
...OTHER STATIONS IN TEXAS...

CITY           SKY/WX    TMP DP  RH WIND       PRES   REMARKS
ABILENE        FAIR      80  66  62 S13       30.00S
AMARILLO       FAIR      73  62  68 S12       30.03F
AUSTIN         MOCLDY    77  76  96 S9        30.00F
BROWNSVILLE    MOCLDY    79  76  90 SE6       30.00F
CORPUS CHRISTI FAIR      78  73  84 SE9       29.99F
DALLAS FTW     FAIR      82  72  71 S13       29.96F
DEL RIO        FAIR      81  70  69 SE12G23   29.94S
EL PASO        MOCLDY    77  61  57 N6        30.03F
HOUSTON INT    FAIR      80  77  90 S5        30.02F
LUBBOCK        MOCLDY    76  61  59 S9        30.03F
SAN ANGELO     CLOUDY    77  68  73 S6        30.00S
SAN ANTONIO    FAIR      78  71  79 S10       30.00F
WACO           FAIR      79  73  82 S14       29.99S
WICHITA FALLS  NOT AVBL
$$
...OTHER LOCATIONS IN NEW MEXICO...

CITY           SKY/WX    TMP DP  RH WIND       PRES   REMARKS
ALAMAGORDO     FAIR      77  55  47 S5        30.07S
ALBUQUERQUE    CLOUDY    72  57  59 SE7       30.14F
CANNON AFB     FAIR      69  62  78 S7        30.07S
CLOVIS         FAIR      70  59  68 S8          N/A
HOLLOMAN AFB   FAIR      77  55  45 CALM      30.04F
ROSWELL        FAIR      73  56  54 S6        30.02S
RUIDOSO        FAIR      64  54  68 CALM      30.26F
SANTA FE       FAIR      66  55  67 SE3       30.19F
TRUTH OR CONSE MOCLDY    69  64  84 W10       30.10F
TUCUMCARI      FAIR      72  58  61 SW7       30.01F
$$



USA.gov is the U.S. government's official web portal to all federal, state and local government web resources and services.